Location: Düngen
(52.0952°N, 10.0219°E)
Time: 19:22:19
(UTC+00:00)

NOSS 2-2 (E) - Pass Details

Date: 11 March 2026
Orbit: 382 x 1718 km, 63.3° (Epoch: 20 April)

Event Time Altitude Azimuth Distance (km) Brightness Sun altitude
Rises 18:01:32 0° 212° (SSW) 2,550 7.1 -7.6°
Reaches altitude 10° 18:03:50 10° 207° (SSW) 1,555 5.9 -8.0°
Maximum altitude 18:07:03 49° 131° (SE) 524 2.9 -8.5°
Drops below altitude 10° 18:09:57 10° 55° (NE) 1,412 5.0 -8.9°
Enters shadow 18:10:35 - 52° (NE) 1,680 5.4 -9.0°
